Location: ??????
(55.7522°N, 37.6156°E)
Time: 17:52:02
(UTC+00:00)

IDEFIX/ARIANE 42P - Pass Details

Date: 14 June 2025
Orbit: 780 x 797 km, 98.6° (Epoch: 12 July)

Event Time Altitude Azimuth Distance (km) Brightness Sun altitude
Rises 23:27:54 0° 16° (NNE) 3,317 7.9 -7.1°
Reaches altitude 10° 23:30:15 10° 17° (NNE) 2,382 6.7 -6.9°
Maximum altitude 23:35:32 85° 105° (ESE) 806 2.7 -6.6°
Drops below altitude 10° 23:40:45 10° 196° (SSW) 2,356 4.4 -6.2°
Enters shadow 23:41:29 - 196° (SSW) 2,645 4.6 -6.1°
